Regional Weather Roundup
Issued by NWS Boston, MA

Home | Current Version | Previous Version | Text Only | Print | Product List | Glossary On
Versions: 1 2 3 4 5 6 7 8 9 10 11 12 13 14 15 16 17 18 19 20 21 22 23 24 25 26 27
000
ASUS41 KBOX 152310
RWRBOX

REGIONAL WEATHER ROUNDUP
NATIONAL WEATHER SERVICE TAUNTON MA
600 PM EST FRI DEC 15 2017

NOTE:  "FAIR" INDICATES FEW OR NO CLOUDS BELOW 12,000 FEET WITH NO
SIGNIFICANT WEATHER AND/OR OBSTRUCTIONS TO VISIBILITY.

MAZALL-160000-
EASTERN MASSACHUSETTS

CITY           SKY/WX    TMP DP  RH WIND       PRES   REMARKS
BOSTON         CLOUDY    26  11  52 CALM      29.88F
BEVERLY        CLOUDY    26  13  57 N3        29.88F
LAWRENCE       CLOUDY    27  13  55 NE3       29.90F
BEDFORD        CLOUDY    24  13  62 NE3       29.86F
BLUE HILL        N/A     22  11  62 E6        29.82F WCI  14
NORWOOD        CLOUDY    26  14  60 CALM      29.88F
MARSHFIELD     MOCLDY    27  14  59 CALM      29.88F
PLYMOUTH       CLOUDY    26  14  60 NE3       29.87F
TAUNTON        CLOUDY    26  15  63 CALM      29.88F
NEW BEDFORD    CLOUDY    26  14  60 E3        29.88F
$$

MAZALL-160000-
CAPE COD AND THE ISLANDS

CITY           SKY/WX    TMP DP  RH WIND       PRES   REMARKS
FALMOUTH       CLOUDY    27  18  69 CALM      29.89F
HYANNIS        CLOUDY    28  17  63 SE5       29.88F WCI  23
CHATHAM        CLOUDY    28  18  66 N3        29.89F
PROVINCETOWN   MOCLDY    26  19  74 MISG        N/A
NANTUCKET      LGT SNOW  30  27  88 E5        29.89S FOG     WCI  25
MARTHAS VNYRD  LGT SNOW N/A N/A N/A CALM      29.90R
$$

MAZALL-160000-
CENTRAL AND WESTERN MASSACHUSETTS

CITY           SKY/WX    TMP DP  RH WIND       PRES   REMARKS
WORCESTER      CLOUDY    20   9  62 CALM      29.80F
FITCHBURG      CLOUDY    26  14  60 E3        29.86F
ORANGE         NOT AVBL
SPRINGFIELD    MOCLDY    22  12  66 CALM      29.86F
WESTFIELD      CLOUDY    23  12  62 CALM      29.87F
NORTH ADAMS    CLOUDY    20  13  74 CALM      29.82F
PITTSFIELD     CLOUDY    19  12  74 CALM      29.78F
$$

RIZALL-160000-
RHODE ISLAND

CITY           SKY/WX    TMP DP  RH WIND       PRES   REMARKS
PROVIDENCE     CLOUDY    25  17  72 CALM      29.90F
NEWPORT        CLOUDY    26  19  74 CALM      29.89R
BLOCK ISLAND   LGT SNOW  30  27  88 CALM      29.90R VSB 1
SMITHFIELD     CLOUDY    22  14  71 CALM      29.86F
WESTERLY       LGT SNOW  25  21  85 N3        29.91R FOG
$$

CTZALL-160000-
CONNECTICUT

CITY           SKY/WX    TMP DP  RH WIND       PRES   REMARKS
BRADLEY INTL   CLOUDY    23  12  62 CALM      29.89S
HARTFORD       FLURRIES  25  14  63 CALM      29.91R
BRIDGEPORT     LGT SNOW  26  22  84 CALM      29.91S FOG
DANBURY        LGT SNOW  23  19  85 SW5       29.89S FOG     WCI  17
GROTON         LGT SNOW  24  20  84 N3        29.91R FOG
NEW HAVEN      LGT SNOW  25  21  85 N5        29.91R FOG     WCI  19
CHESTER        LGT SNOW  23  19  86 CALM      29.88R
MERIDEN        LGT SNOW  22  17  81 CALM      29.91R
WILLIMANTIC    CLOUDY    24  14  65 CALM      29.89S
OXFORD         LGT SNOW  22  17  81 CALM      29.87R FOG
$$

MEZ002-015-021-024-NHZ003-005-008-011-012-014-VTZ005-008-160000-
NORTHERN NEW ENGLAND

CITY           SKY/WX    TMP DP  RH WIND       PRES   REMARKS
PORTLAND ME    CLOUDY    21  12  68 VRB3      29.92F
BANGOR ME      CLOUDY    16  11  80 SE5       29.92F WCI   9
CONCORD NH     CLOUDY    22   9  57 CALM      29.87F
MANCHESTER NH  CLOUDY    24  11  57 CALM      29.87F
NASHUA NH      CLOUDY    24  14  65 CALM      29.88F
PORTSMOUTH NH  CLOUDY    23   9  54 CALM      29.88F
JAFFREY NH     CLOUDY    20  14  77 CALM      29.81F
KEENE NH       CLOUDY    19  13  77 CALM      29.85F
BURLINGTON VT  CLOUDY    21  11  65 S7        29.84F WCI  12
MT. WASHINGTON MOCLDY    -2  -6  84 W22         N/A  WCI -26
$$

NYZ052-076-160000-
EASTERN NEW YORK

CITY           SKY/WX    TMP DP  RH WIND       PRES   REMARKS
ALBANY         CLOUDY    21  10  62 S5        29.87F WCI  15
NEW YORK CITY  LGT SNOW  25  22  88 VRB5      29.92F VSB 3/4 WCI  19
$$

ANZALL-160000-
MARINE OBSERVATIONS

STATION/POSITION TIME  TEMP    WIND        PRES    VSBY  WAVE
                       AIR SEA DIR/SP/G                  HT/PER
                 (UTC) (F)     (DEG/KT/KT) (MB)    (MI)  (FT/S)
BOSTON BUOY      2250   29 47  260/  2/  4 1011.9F         1/11
BUZZARDS BAY     2200   30      40/  9/ 10 1012.4F
NANTUCKET SOUND  2250   30 42   50/  4/  8 1012.6F         1
MASS BAY-STELLWA 2204   28 47  270/  2/  4 1012.9F         1/11
ISLE OF SHOALS   2200   26     230/  6/  8 1013.3F
S OF BLOCK IS    2243      51                N/A           3/ 9
$$

......................KEY.........................
  SKY/WX - SKY CONDITION/PRESENT WEATHER
  TMP    - TEMPERATURE IN FAHRENHEIT
  DWPT   - DEWPOINT IN FAHRENHEIT
  RH     - RELATIVE HUMIDITY IN PERCENT
  WIND   - DIRECTION AND SPEED IN MPH
  PRES   - MEAN SEA LEVEL PRESSURE IN INCHES OF HG
  WCI    - WIND CHILL INDEX
  VSB    - VISIBILITY IN MILES
  HX     - HEAT INDEX
  TC     - TEMPERATURE IN CELSIUS
  VRB    - VARIABLE WIND DIRECTION
  N/A    - NOT AVAILABLE




USA.gov is the U.S. government's official web portal to all federal, state and local government web resources and services.